This demonstration page uses our WeatherBlox Daily Observations layout. Learn more.

Left ArrowRight Arrow

Hourly Observations for May 30, 2020

Temp ( °F °C ) Dew Point ( °F °C ) Humidity (%) Winds ( mph kmh ) Pressure ( in mb ) Visibility ( mi km ) Precip ( " mm )
12:53 am 00:53 Clear 60 15.6 59 15 96 96 N N/A 30.04 1017 7 11.26538 N/A
1:53 am 01:53 Partly Cloudy 60 15.6 59 15 96 96 N N/A 30.05 1018 10 16.0934 N/A
2:53 am 02:53 Mostly Clear 59 15 58 14.4 96 96 WNW 3 6 30.05 1018 10 16.0934 N/A
3:53 am 03:53 Clear 57 13.9 57 13.9 100 100 N N/A 30.05 1018 9 14.48406 N/A
4:53 am 04:53 Clear 58 14.4 57 13.9 97 97 NW 3 6 30.06 1018 10 16.0934 N/A
5:53 am 05:53 Clear 56 13.3 55 12.8 97 97 N N/A 30.08 1019 9 14.48406 N/A
6:53 am 06:53 Sunny 58 14.4 56 13.3 93 93 N N/A 30.1 1019 10 16.0934 N/A
7:53 am 07:53 Sunny 61 16.1 55 12.8 81 81 NNW 3 6 30.12 1020 10 16.0934 N/A
8:53 am 08:53 Sunny 63 17.2 53 11.7 70 70 N 6 9 30.13 1020 10 16.0934 N/A
9:53 am 09:53 Sunny 65 18.3 52 11.1 63 63 NNW 8 13 30.14 1021 10 16.0934 N/A
10:53 am 10:53 Partly Cloudy 67 19.4 50 10 55 55 N 10 17 30.14 1021 10 16.0934 N/A
11:53 am 11:53 Mostly Cloudy 69 20.6 52 11.1 55 55 NNW 9 15 30.14 1021 10 16.0934 N/A
12:53 pm 12:53 Partly Cloudy 70 21.1 51 10.6 51 51 NNW 9 15 30.13 1020 10 16.0934 N/A
1:53 pm 13:53 Mostly Cloudy 69 20.6 49 9.4 49 49 NNW 13 20 30.14 1021 10 16.0934 N/A
2:53 pm 14:53 Mostly Cloudy 70 21.1 51 10.6 51 51 NNW 8 13 30.13 1020 10 16.0934 N/A
3:53 pm 15:53 Mostly Cloudy 70 21.1 51 10.6 51 51 NW 9 15 30.13 1020 10 16.0934 N/A
4:53 pm 16:53 Mostly Cloudy 71 21.7 50 10 47 47 N 7 11 30.12 1020 10 16.0934 N/A
5:53 pm 17:53 Mostly Sunny 71 21.7 50 10 47 47 NNW 7 11 30.12 1020 10 16.0934 N/A
6:53 pm 18:53 Partly Cloudy 72 22.2 51 10.6 48 48 N 7 11 30.11 1020 10 16.0934 N/A
7:53 pm 19:53 Sunny 70 21.1 50 10 49 49 N 5 7 30.12 1020 10 16.0934 N/A
8:53 pm 20:53 Sunny 63 17.2 53 11.7 70 70 NNW 3 6 30.14 1021 10 16.0934 N/A
9:53 pm 21:53 Clear 59 15 55 12.8 87 87 NW 3 6 30.16 1021 10 16.0934 N/A
10:53 pm 22:53 Clear 56 13.3 53 11.7 90 90 NNW 3 6 30.17 1022 10 16.0934 N/A
11:53 pm 23:53 Clear 57 13.9 50 10 78 78 NNW 5 7 30.18 1022 10 16.0934 N/A

Powered by AerisWeather